Location: Alpha Ridge Park
(39.3209°N, 76.9128°W)
Time: 23:52:07
(UTC-04:00)

Transit 2A Rocket - All Passes

Search period start: 20 May 2019 00:00
Search period end: 30 May 2019 00:00
Orbit: 585 x 918 km, 66.7° (Epoch: 20 May)

Date Brightness Start Highest point End Pass type
(mag) Time Alt. Az. Time Alt. Az. Time Alt. Az.
20 May - 03:13:46 10° N 03:18:25 26° NE 03:22:44 10° ESE visible
20 May - 04:56:03 10° NW 05:01:19 47° WSW 05:06:04 10° S visible
20 May - 17:46:45 10° SSE 17:51:24 24° ESE 17:56:09 10° NE daylight
20 May - 19:27:41 10° SW 19:33:38 56° WNW 19:39:40 10° NNE daylight
20 May - 21:15:07 10° WNW 21:17:38 12° NW 21:20:07 10° NNW visible
21 May - 02:31:53 10° N 02:35:28 17° NE 02:38:52 10° E visible
21 May - 04:13:21 10° NNW 04:18:55 84° WSW 04:23:55 10° SSE visible
21 May - 17:06:27 10° SE 17:09:15 14° ESE 17:12:06 10° ENE daylight
21 May - 18:45:01 10° SSW 18:51:03 89° WNW 18:57:14 10° NNE daylight
21 May - 20:30:24 10° W 20:34:32 18° NW 20:38:41 10° N daylight
22 May - 01:50:47 10° NNE 01:52:22 11° NE 01:53:55 10° NE visible
22 May - 03:30:52 10° NNW 03:36:22 57° ENE 03:41:19 10° SE visible
22 May - 05:14:52 10° WNW 05:18:20 18° WSW 05:21:36 10° SW visible
22 May - 18:02:44 10° S 18:08:36 56° ESE 18:14:35 10° NE daylight
22 May - 19:46:29 10° WSW 19:51:36 27° NW 19:56:45 10° N daylight
23 May - 02:48:35 10° NNW 02:53:40 34° NE 02:58:18 10° ESE visible
23 May - 04:31:26 10° NW 04:36:10 32° WSW 04:40:32 10° S visible
23 May - 17:20:57 10° S 17:26:17 34° ESE 17:31:41 10° NE daylight
23 May - 19:03:05 10° SW 19:08:48 42° NW 19:14:34 10° NNE daylight
24 May - 02:06:31 10° N 02:10:48 22° NE 02:14:48 10° E visible
24 May - 03:48:31 10° NW 03:53:53 57° WSW 03:58:43 10° SSE visible
24 May - 16:39:50 10° SSE 16:44:03 20° ESE 16:48:19 10° ENE daylight
24 May - 18:20:07 10° SW 18:26:08 66° WNW 18:32:15 10° NNE daylight
24 May - 20:06:46 10° WNW 20:09:57 14° NW 20:13:07 10° N daylight
25 May - 01:24:48 10° N 01:27:48 14° NE 01:30:40 10° ENE visible
25 May - 03:05:53 10° NNW 03:11:26 81° ENE 03:16:24 10° SSE visible
25 May - 04:51:31 10° W 04:53:03 11° W 04:54:33 10° WSW visible
25 May - 16:00:30 10° ESE 16:01:57 11° E 16:03:24 10° E daylight
25 May - 17:37:33 10° SSW 17:43:36 78° ESE 17:49:44 10° NNE daylight
25 May - 19:22:23 10° W 19:26:55 21° NW 19:31:27 10° N daylight
26 May - 02:23:29 10° NNW 02:28:50 47° NE 02:33:40 10° SE visible
26 May - 04:07:01 10° WNW 04:10:58 21° WSW 04:14:39 10° SSW visible
26 May - 16:55:27 10° S 17:01:11 47° ESE 17:07:01 10° NE daylight
26 May - 18:38:40 10° WSW 18:44:02 31° NW 18:49:25 10° NNE daylight
27 May - 01:41:16 10° N 01:46:04 29° NE 01:50:28 10° ESE visible
27 May - 03:23:48 10° NW 03:28:46 38° WSW 03:33:18 10° S visible
27 May - 16:13:51 10° SSE 16:18:54 28° ESE 16:24:00 10° NE daylight
27 May - 17:55:24 10° SW 18:01:17 49° NW 18:07:11 10° NNE daylight
27 May - 19:43:52 10° NW 19:45:24 11° NW 19:46:56 10° NNW daylight
28 May - 00:59:18 10° N 01:03:09 19° NE 01:06:47 10° E visible
28 May - 02:41:00 10° NNW 02:46:26 70° WSW 02:51:18 10° SSE visible
28 May - 15:33:05 10° SE 15:36:42 17° ESE 15:40:22 10° ENE daylight
28 May - 17:12:35 10° SSW 17:18:40 78° WNW 17:24:48 10° NNE daylight
28 May - 18:58:35 10° W 19:02:17 16° NW 19:05:59 10° N daylight
29 May - 00:17:51 10° NNE 00:20:06 12° NE 00:22:17 10° ENE visible
29 May - 01:58:27 10° NNW 02:03:55 67° ENE 02:08:50 10° SE visible
29 May - 03:43:05 10° WNW 03:45:43 14° WSW 03:48:14 10° SW visible
29 May - 16:30:10 10° SSW 16:36:10 66° ESE 16:42:14 10° NE daylight
29 May - 18:14:27 10° W 18:19:18 24° NW 18:24:09 10° N daylight
